[[{"header":{"parameterUnit":"m.s-1","parameterCategory":1,"la1":30.2991,"la2":30.254,"lo1":-89.0895,"lo2":-89.0444,"dy":0.0017,"dx":0.0017,"nx":28,"ny":28,"refTime":"2025-01-23T09:00:00:Z","depth":0,"parameterNumber":2,"parameterNumberName":"U-component_of_WINDS"},"data":[0,0,0,0,0,0,0,0,0,0,0,0,0,0,0,0,0,0,0,0,0,0,0,0,0,0,0,0,0,0,0,0,0,0,0,0,0,0,0,0,0,0,0,0,0,0,0,0,0,0,0,0,0,0,0,0,0,0,2.6218,2.6219,0,2.6313,2.6314,2.6315,2.629,2.6288,2.6286,2.6285,2.638,2.6384,2.6389,0,0,0,0,0,0,0,0,0,0,0,0,0,2.6014,2.6018,2.6218,2.6219,2.622,2.6313,2.6314,2.6315,2.629,2.6288,2.6286,2.6284,2.6379,2.6384,2.6389,0,0,0,0,0,0,0,0,0,0,0,0,0,2.6105,2.6019,2.6217,2.6219,2.622,2.6312,2.6314,2.6315,2.6291,2.6288,2.6285,2.6283,2.6377,2.6383,2.639,2.6486,0,0,2.6409,2.6412,0,0,0,0,0,0,0,0,2.61,2.6113,2.6217,2.6219,2.622,2.6287,2.6277,2.6373,2.6292,2.6264,2.6284,2.6281,2.6351,2.636,2.6384,2.649,2.6494,2.641,2.6414,2.6417,2.6418,0,0,0,0,0,0,0,2.6094,2.6109,2.6255,2.6219,2.6221,2.6215,2.6224,2.6295,2.6322,2.6266,2.6265,2.6276,2.6351,2.6377,2.6386,2.6496,2.641,2.6415,2.6419,2.6422,2.6688,2.6691,0,0,0,0,0,0,2.6087,2.6103,2.6252,2.6258,2.6152,2.6221,2.6232,2.6268,2.6321,2.6327,2.6279,2.6275,2.6368,2.6378,2.6389,2.6506,2.6417,2.6423,2.6426,2.6684,2.6688,2.6692,0,0,0,0,0,0,2.6082,2.61,2.6248,2.618,2.6199,2.6227,2.6268,2.6272,2.6297,2.6331,2.6335,2.63,2.6366,2.638,2.6462,2.6508,2.6425,2.6431,2.6681,2.6686,2.669,2.6739,0,0,0,0,0,0,2.6077,2.6099,2.6136,2.6181,2.6203,2.632,2.6271,2.6275,2.6309,2.6305,2.6352,2.6357,2.6365,2.6453,2.6469,2.6516,2.6436,2.6677,2.6683,2.6688,2.6734,2.6745,2.6755,0,0,0,0,0,2.6069,2.6145,2.6137,2.6156,2.6249,2.6323,2.6335,2.6343,2.6313,2.635,2.6372,2.6356,2.6501,2.6461,2.6479,2.6529,2.6674,2.6681,2.6688,2.6729,2.6743,2.6755,0,0,0,0,0,0,2.6103,2.6151,2.6143,2.6236,2.6276,2.6319,2.6366,2.6357,2.6406,2.64,2.6407,2.6418,2.6502,2.6524,2.6479,2.6626,2.6583,2.6594,2.6608,2.6622,2.6632,2.6625,2.6442,0,0,0,0,0,2.6121,2.6177,2.6216,2.6294,2.6315,2.6337,2.637,2.6372,2.6413,2.643,2.6457,2.6498,2.6553,2.6588,2.6641,2.6737,2.6747,2.678,2.6791,2.68,2.6809,2.6862,2.6878,2.6715,2.6715,2.6715,0,0,2.6159,2.6192,2.6227,2.6302,2.6333,2.6391,2.6351,2.6414,2.6457,2.6439,2.6519,2.6541,2.6587,2.6677,2.6718,2.6697,2.6856,2.6809,2.6815,2.682,2.6871,2.6887,2.69,2.672,2.6719,2.6718,0,0,2.6258,2.6289,2.6357,2.639,2.6438,2.6453,2.647,2.6515,2.6529,2.6609,2.6597,2.6649,2.6743,2.6776,2.6805,2.6919,2.6907,2.6936,2.6992,2.7044,2.7056,2.7068,2.7109,2.7123,2.6945,2.6945,2.6946,0,2.6298,2.6386,2.6394,2.6458,2.6492,2.648,2.6549,2.658,2.6643,2.6666,2.6643,2.6762,2.6792,2.689,2.6918,2.6942,2.6961,2.693,2.7054,2.7066,2.7076,2.7115,2.7131,2.6949,2.6948,2.6948,2.6948,0,2.6434,2.6495,2.6545,2.6607,2.6646,2.6713,2.6731,2.677,2.6769,2.6787,2.6869,2.6905,2.6965,2.6988,2.6988,2.7087,2.7073,2.7052,2.7009,2.7095,2.7132,2.7147,2.6953,2.6952,2.6951,2.695,0,0,2.6555,2.6622,2.664,2.6668,2.6721,2.6768,2.6835,2.6895,2.6928,2.6972,2.7028,2.7109,2.7091,2.7124,2.7128,2.7174,2.7262,2.7147,2.7148,2.7167,2.7374,2.7389,2.7406,2.7255,2.7258,2.726,2.737,0,2.6658,2.6776,2.6786,2.6892,2.6949,2.6939,2.6997,2.7036,2.7055,2.7105,2.7125,2.7183,2.7154,2.7174,2.7219,2.7242,2.7304,2.7234,2.7307,2.7309,2.7295,2.7426,2.7442,2.7544,2.7385,2.7387,2.7389,0,2.6794,2.6843,2.6955,2.7002,2.7026,2.7078,2.7134,2.7183,2.7227,2.7238,2.7276,2.7274,2.7343,2.7299,2.7394,2.7347,2.7377,2.7393,2.7398,2.7404,2.7354,2.7435,2.7576,2.7592,2.7411,2.741,2.7408,0,2.6871,2.6965,2.7045,2.707,2.7126,2.7163,2.7188,2.723,2.7265,2.7314,2.7337,2.7394,2.7424,2.7468,2.7481,2.7448,2.7577,2.7533,2.7587,2.7587,2.7613,2.7612,2.7761,2.7634,2.7634,2.7634,2.7633,0,2.6985,2.7054,2.708,2.7129,2.7206,2.7218,2.7294,2.7317,2.7354,2.7408,2.7403,2.7453,2.7468,2.7521,2.7532,2.7609,2.7623,2.7633,2.7635,2.7634,2.7632,2.7653,2.7646,2.7638,2.7637,2.7636,2.7635,0,2.7084,2.7104,2.719,2.7237,2.725,2.7305,2.7345,2.7392,2.7411,2.7478,2.7495,2.7523,2.7586,2.7604,2.7678,2.7686,2.7777,2.7773,2.7762,2.7762,2.7815,2.7809,2.7983,2.8006,2.7864,2.7865,2.7866,0,2.7155,2.7208,2.7261,2.7296,2.7323,2.7381,2.7417,2.7431,2.7469,2.7525,2.7566,2.7627,2.7677,2.7777,2.7804,2.7862,2.7859,2.7916,2.7867,2.7864,2.7859,2.7856,2.7861,2.7924,2.7926,2.7927,2.7928,0,2.7279,2.7287,2.734,2.7398,2.7442,2.7487,2.7531,2.7561,2.7581,2.7624,2.7688,2.7727,2.7804,2.7865,2.7924,2.795,2.7943,2.7943,2.7959,2.7957,2.7949,2.7954,2.7787,2.7939,2.7938,2.7937,2.7936,2.7936,2.7366,2.7413,2.7458,2.7518,2.7553,2.7594,2.7641,2.7666,2.772,2.7784,2.7789,2.7858,2.7903,2.7981,2.801,2.8064,2.8048,2.807,2.8075,2.8081,2.8085,2.7941,2.8075,2.8075,2.8074,2.8074,2.8074,0,2.749,2.7519,2.7574,2.7636,2.7683,2.7674,2.7722,2.7762,2.7824,2.7866,2.7916,2.799,2.805,2.8083,2.8143,2.818,2.8179,2.8195,2.8192,2.8199,2.8096,2.8077,2.8196,2.8196,2.8196,2.8196,2.8196,2.8196,2.756,2.7639,2.7652,2.7749,2.7778,2.7846,2.7875,2.7913,2.7947,2.8031,2.8081,2.8102,2.8141,2.8204,2.8259,2.8267,2.8289,2.8308,2.8315,2.8218,2.8206,2.8194,2.8176,2.8313,2.8313,2.8412,2.8413,2.8414]},{"header":{"parameterUnit":"m.s-1","parameterCategory":1,"la1":30.2991,"la2":30.254,"lo1":-89.0895,"lo2":-89.0444,"dy":0.0017,"dx":0.0017,"nx":28,"ny":28,"refTime":"2025-01-23T09:00:00:Z","depth":0,"parameterNumber":3,"parameterNumberName":"V-component_of_WINDS"},"data":[0,0,0,0,0,0,0,0,0,0,0,0,0,0,0,0,0,0,0,0,0,0,0,0,0,0,0,0,0,0,0,0,0,0,0,0,0,0,0,0,0,0,0,0,0,0,0,0,0,0,0,0,0,0,0,0,0,0,-5.4836,-5.4838,0,-5.5013,-5.5015,-5.5017,-5.4971,-5.4968,-5.4964,-5.4961,-5.5139,-5.5147,-5.5155,0,0,0,0,0,0,0,0,0,0,0,0,0,-5.4454,-5.4461,-5.4836,-5.4838,-5.4841,-5.5013,-5.5015,-5.5018,-5.4972,-5.4968,-5.4963,-5.4959,-5.5136,-5.5146,-5.5155,0,0,0,0,0,0,0,0,0,0,0,0,0,-5.4624,-5.4464,-5.4836,-5.4838,-5.484,-5.5012,-5.5015,-5.5018,-5.4973,-5.4967,-5.4962,-5.4957,-5.5133,-5.5145,-5.5157,-5.5336,0,0,-5.5193,-5.5199,0,0,0,0,0,0,0,0,-5.4615,-5.4638,-5.4836,-5.4839,-5.4841,-5.4965,-5.4946,-5.5125,-5.4974,-5.4922,-5.4961,-5.4955,-5.5085,-5.5101,-5.5145,-5.5344,-5.5352,-5.5194,-5.5202,-5.5207,-5.521,0,0,0,0,0,0,0,-5.4603,-5.463,-5.4906,-5.4839,-5.4842,-5.4829,-5.4848,-5.498,-5.5031,-5.4926,-5.4924,-5.4945,-5.5085,-5.5134,-5.5149,-5.5354,-5.5194,-5.5205,-5.5212,-5.5217,-5.5707,-5.5713,0,0,0,0,0,0,-5.459,-5.4621,-5.49,-5.4911,-5.4713,-5.4841,-5.4861,-5.493,-5.5029,-5.5039,-5.495,-5.4943,-5.5116,-5.5135,-5.5155,-5.5371,-5.5207,-5.5218,-5.5225,-5.5701,-5.5708,-5.5715,0,0,0,0,0,0,-5.4582,-5.4615,-5.4893,-5.4766,-5.48,-5.4853,-5.4931,-5.4937,-5.4985,-5.5047,-5.5055,-5.499,-5.5113,-5.5138,-5.5291,-5.5376,-5.5223,-5.5234,-5.5695,-5.5704,-5.5712,-5.5803,0,0,0,0,0,0,-5.4571,-5.4612,-5.4682,-5.4768,-5.4807,-5.5028,-5.4936,-5.4944,-5.5006,-5.4999,-5.5087,-5.5097,-5.511,-5.5273,-5.5303,-5.539,-5.5244,-5.5687,-5.5699,-5.5709,-5.5793,-5.5814,-5.5832,0,0,0,0,0,-5.4557,-5.4701,-5.4686,-5.472,-5.4896,-5.5033,-5.5055,-5.5069,-5.5013,-5.5083,-5.5122,-5.5094,-5.5362,-5.529,-5.5322,-5.5414,-5.5682,-5.5695,-5.5708,-5.5784,-5.581,-5.5832,0,0,0,0,0,0,-5.4623,-5.4712,-5.4697,-5.4872,-5.4945,-5.5025,-5.5113,-5.5096,-5.5186,-5.5175,-5.5188,-5.5208,-5.5364,-5.5404,-5.5322,-5.5592,-5.5514,-5.5534,-5.556,-5.5585,-5.5604,-5.5591,-5.5254,0,0,0,0,0,-5.4658,-5.4763,-5.4835,-5.4982,-5.502,-5.5061,-5.5121,-5.5125,-5.5201,-5.5232,-5.5283,-5.5356,-5.5457,-5.5523,-5.5619,-5.5798,-5.5816,-5.5877,-5.5897,-5.5913,-5.593,-5.6026,-5.6054,-5.5758,-5.5758,-5.5757,0,0,-5.4731,-5.4793,-5.4858,-5.4997,-5.5055,-5.5162,-5.5087,-5.5204,-5.5283,-5.5249,-5.5397,-5.5437,-5.5519,-5.5686,-5.5762,-5.5724,-5.6016,-5.5929,-5.5942,-5.595,-5.6042,-5.607,-5.6095,-5.5767,-5.5765,-5.5764,0,0,-5.4919,-5.4977,-5.5106,-5.5165,-5.5253,-5.5279,-5.531,-5.5392,-5.5417,-5.5566,-5.5542,-5.5635,-5.5809,-5.5869,-5.5922,-5.6132,-5.6108,-5.6163,-5.6265,-5.6359,-5.6382,-5.6403,-5.6476,-5.6503,-5.618,-5.618,-5.618,0,-5.4999,-5.5161,-5.5174,-5.5294,-5.5355,-5.5329,-5.5459,-5.5515,-5.5629,-5.5672,-5.5628,-5.5845,-5.5899,-5.6078,-5.6129,-5.6174,-5.6208,-5.6153,-5.6378,-5.6399,-5.6418,-5.6488,-5.6516,-5.6186,-5.6185,-5.6185,-5.6184,0,-5.5254,-5.5367,-5.546,-5.5572,-5.5644,-5.5768,-5.5798,-5.5868,-5.5866,-5.5896,-5.6046,-5.611,-5.6218,-5.6261,-5.626,-5.644,-5.6414,-5.6374,-5.6296,-5.6452,-5.6518,-5.6546,-5.6195,-5.6192,-5.6191,-5.6189,0,0,-5.549,-5.5607,-5.5641,-5.569,-5.5785,-5.5872,-5.5993,-5.61,-5.616,-5.6239,-5.6341,-5.6488,-5.6451,-5.6512,-5.6517,-5.6599,-5.6759,-5.6549,-5.6551,-5.6585,-5.696,-5.6989,-5.702,-5.6744,-5.6749,-5.6753,-5.6953,0,-5.5686,-5.5902,-5.5916,-5.6111,-5.6214,-5.619,-5.6296,-5.6365,-5.6396,-5.6487,-5.652,-5.6624,-5.6568,-5.6604,-5.6685,-5.6723,-5.6835,-5.6709,-5.6837,-5.6842,-5.6817,-5.7055,-5.7087,-5.7272,-5.6979,-5.6983,-5.6987,0,-5.5944,-5.6031,-5.6237,-5.6315,-5.6359,-5.6454,-5.6552,-5.664,-5.6717,-5.6733,-5.68,-5.6794,-5.6917,-5.6834,-5.7003,-5.6917,-5.697,-5.6997,-5.7004,-5.7017,-5.6923,-5.7073,-5.7331,-5.7359,-5.7028,-5.7024,-5.7021,0,-5.6094,-5.6263,-5.6408,-5.6451,-5.6547,-5.6614,-5.6657,-5.6728,-5.6791,-5.6876,-5.6916,-5.7015,-5.7068,-5.7144,-5.7163,-5.7101,-5.7331,-5.7251,-5.7347,-5.7347,-5.7397,-5.7393,-5.7667,-5.7432,-5.7432,-5.7431,-5.7431,0,-5.6311,-5.6437,-5.6476,-5.6565,-5.6705,-5.6719,-5.6857,-5.6895,-5.6959,-5.7053,-5.7039,-5.7127,-5.7148,-5.724,-5.7256,-5.7393,-5.7417,-5.7433,-5.7435,-5.7434,-5.7432,-5.7469,-5.7457,-5.7439,-5.7437,-5.7436,-5.7434,0,-5.6503,-5.6534,-5.669,-5.6767,-5.679,-5.6889,-5.6955,-5.7039,-5.7068,-5.7188,-5.7216,-5.7261,-5.7369,-5.7395,-5.7524,-5.7534,-5.7696,-5.7686,-5.767,-5.767,-5.7765,-5.7755,-5.8071,-5.8113,-5.7851,-5.7854,-5.7856,0,-5.664,-5.6736,-5.6824,-5.6887,-5.6932,-5.7034,-5.7098,-5.7115,-5.7181,-5.7275,-5.7348,-5.7454,-5.754,-5.7713,-5.7756,-5.7854,-5.7846,-5.795,-5.786,-5.7856,-5.7847,-5.7841,-5.785,-5.7967,-5.797,-5.7972,-5.7974,0,-5.6878,-5.6889,-5.6982,-5.7081,-5.7157,-5.7236,-5.731,-5.7362,-5.7389,-5.7465,-5.7575,-5.7642,-5.7773,-5.7878,-5.7976,-5.8018,-5.8001,-5.8001,-5.8029,-5.8028,-5.8015,-5.8023,-5.7716,-5.7994,-5.7992,-5.7991,-5.7989,-5.7989,-5.7046,-5.7131,-5.7205,-5.7309,-5.7367,-5.7437,-5.752,-5.7558,-5.7651,-5.776,-5.7764,-5.7884,-5.7956,-5.8086,-5.8134,-5.8227,-5.8195,-5.8235,-5.8245,-5.8255,-5.8263,-5.8,-5.8245,-5.8244,-5.8244,-5.8243,-5.8243,0,-5.7284,-5.733,-5.7426,-5.7531,-5.7612,-5.7589,-5.767,-5.7739,-5.7845,-5.7914,-5.7999,-5.8125,-5.8227,-5.8277,-5.8377,-5.8442,-5.8436,-5.8468,-5.8463,-5.8473,-5.8286,-5.8252,-5.8471,-5.847,-5.847,-5.847,-5.847,-5.847,-5.7417,-5.7558,-5.7577,-5.7746,-5.7791,-5.7909,-5.7957,-5.8021,-5.8076,-5.8218,-5.8302,-5.8335,-5.8396,-5.85,-5.8592,-5.8604,-5.8641,-5.8677,-5.8685,-5.8509,-5.8486,-5.8464,-5.8432,-5.8685,-5.8685,-5.8864,-5.8865,-5.8867]}]]